• In Hungary
  • List of Countries
  • For 7 days
  • Water Temperature
  • Satellite Maps
  • Weather Map
  • News
  • Weather Widgets
  • user-avatar
    Login

    Hourly Weather Charkesar

    Today, 16 October, Tuesday

    Time Temperature Precipitation Wind Pressure Humidity
    00:00 +5°C° 0.4 mm 4 mps 653 mmHg 61%
    01:00 +4°C° 0.4 mm 4 mps 653 mmHg 64%
    02:00 +4°C° 0.4 mm 4 mps 653 mmHg 66%
    03:00 +4°C° 0.6 mm 4 mps 653 mmHg 68%
    04:00 +3°C° 0.6 mm 4 mps 653 mmHg 70%
    05:00 +3°C° 0 mm 4 mps 653 mmHg 72%
    06:00 +3°C° 0.4 mm 4 mps 653 mmHg 71%
    07:00 +3°C° 0.4 mm 4 mps 653 mmHg 71%
    08:00 +3°C° 0.4 mm 4 mps 653 mmHg 70%
    09:00 +3°C° 0.4 mm 4 mps 653 mmHg 69%
    10:00 +3°C° 0.4 mm 4 mps 653 mmHg 67%
    11:00 +4°C° 0.4 mm 4 mps 654 mmHg 65%
    12:00 +3°C° 0.6 mm 4 mps 654 mmHg 64%
    13:00 +3°C° 0.6 mm 4 mps 654 mmHg 64%
    14:00 +2°C° 0.6 mm 5 mps 654 mmHg 63%
    15:00 +2°C° 0.4 mm 5 mps 654 mmHg 62%
    16:00 +1°C° 0.4 mm 5 mps 654 mmHg 61%
    17:00 +1°C° 0.4 mm 5 mps 655 mmHg 61%
    18:00 0°C° 0.2 mm 5 mps 655 mmHg 61%
    19:00 0°C° 0.2 mm 4 mps 655 mmHg 62%
    20:00 -1°C° 0.2 mm 4 mps 656 mmHg 63%
    21:00 -1°C° 0.1 mm 4 mps 656 mmHg 64%
    22:00 -1°C° 0.1 mm 4 mps 656 mmHg 65%
    23:00 -1°C° 0.1 mm 3 mps 656 mmHg 66%

    Tomorrow, 17 October, Wednesday

    Time Temperature Precipitation Wind Pressure Humidity
    00:00 -1°C° 0.2 mm 3 mps 657 mmHg 67%
    01:00 -1°C° 0.2 mm 3 mps 657 mmHg 68%
    02:00 -1°C° 0.2 mm 3 mps 657 mmHg 69%
    03:00 -1°C° 0.1 mm 3 mps 658 mmHg 69%
    04:00 -1°C° 0.1 mm 3 mps 658 mmHg 69%
    05:00 -2°C° 0.1 mm 3 mps 659 mmHg 70%
    06:00 -2°C° 0 mm 3 mps 659 mmHg 67%
    07:00 -2°C° 0 mm 3 mps 660 mmHg 65%
    08:00 -2°C° 0 mm 3 mps 660 mmHg 63%
    09:00 -1°C° 0 mm 3 mps 661 mmHg 56%
    10:00 0°C° 0 mm 3 mps 661 mmHg 50%
    11:00 +1°C° 0 mm 3 mps 661 mmHg 43%
    12:00 +2°C° 0 mm 3 mps 661 mmHg 41%
    13:00 +2°C° 0 mm 3 mps 661 mmHg 38%
    14:00 +4°C° 0 mm 2 mps 661 mmHg 35%
    15:00 +3°C° 0 mm 2 mps 660 mmHg 37%
    16:00 +3°C° 0 mm 2 mps 660 mmHg 38%
    17:00 +2°C° 0 mm 2 mps 660 mmHg 40%
    18:00 +1°C° 0 mm 2 mps 660 mmHg 42%
    19:00 -1°C° 0 mm 2 mps 660 mmHg 44%
    20:00 -2°C° 0 mm 2 mps 660 mmHg 46%
    21:00 -2°C° 0 mm 2 mps 660 mmHg 46%
    22:00 -2°C° 0 mm 2 mps 660 mmHg 46%
    23:00 -2°C° 0 mm 2 mps 659 mmHg 46%

    Day after tomorrow, 18 October, Thursday

    Time Temperature Precipitation Wind Pressure Humidity
    00:00 -2°C° 0 mm 2 mps 659 mmHg 45%
    01:00 -3°C° 0 mm 2 mps 659 mmHg 45%
    02:00 -3°C° 0 mm 2 mps 658 mmHg 44%
    03:00 -3°C° 0 mm 2 mps 658 mmHg 43%
    04:00 -3°C° 0 mm 2 mps 657 mmHg 42%
    05:00 -1°C° 0 mm 1 mps 657 mmHg 42%
    06:00 0°C° 0 mm 1 mps 657 mmHg 41%
    07:00 +1°C° 0 mm 1 mps 657 mmHg 40%
    08:00 +1°C° 0 mm 1 mps 657 mmHg 39%
    09:00 +3°C° 0 mm 1 mps 657 mmHg 37%
    10:00 +3°C° 0 mm 2 mps 657 mmHg 35%
    11:00 +5°C° 0 mm 2 mps 656 mmHg 33%
    12:00 +6°C° 0 mm 2 mps 656 mmHg 34%
    13:00 +6°C° 0 mm 2 mps 656 mmHg 34%
    14:00 +7°C° 0 mm 2 mps 656 mmHg 34%
    15:00 +7°C° 0 mm 2 mps 656 mmHg 35%
    16:00 +7°C° 0 mm 1 mps 656 mmHg 36%
    17:00 +6°C° 0 mm 1 mps 655 mmHg 37%
    18:00 +6°C° 0 mm 1 mps 656 mmHg 38%
    19:00 +5°C° 0 mm 1 mps 656 mmHg 38%
    20:00 +5°C° 0 mm 1 mps 656 mmHg 38%
    21:00 +5°C° 0 mm 1 mps 656 mmHg 39%
    22:00 +5°C° 0 mm 1 mps 656 mmHg 40%
    23:00 +4°C° 0 mm 1 mps 656 mmHg 40%

    19 October, Friday

    Time Temperature Precipitation Wind Pressure Humidity
    00:00 +4°C° 0 mm 1 mps 656 mmHg 42%
    01:00 +4°C° 0 mm 1 mps 656 mmHg 44%
    02:00 +4°C° 0 mm 1 mps 655 mmHg 45%
    03:00 +4°C° 0 mm 1 mps 656 mmHg 47%
    04:00 +4°C° 0 mm 1 mps 656 mmHg 49%
    05:00 +4°C° 0 mm 1 mps 656 mmHg 51%
    06:00 +4°C° 0 mm 1 mps 656 mmHg 50%
    07:00 +5°C° 0 mm 1 mps 656 mmHg 50%
    08:00 +4°C° 0 mm 2 mps 657 mmHg 50%
    09:00 +5°C° 0 mm 2 mps 657 mmHg 47%
    10:00 +6°C° 0 mm 2 mps 657 mmHg 45%
    11:00 +7°C° 0 mm 2 mps 657 mmHg 42%
    12:00 +8°C° 0 mm 2 mps 657 mmHg 41%
    13:00 +8°C° 0 mm 3 mps 657 mmHg 41%
    14:00 +9°C° 0 mm 3 mps 657 mmHg 40%
    15:00 +8°C° 0 mm 2 mps 658 mmHg 41%
    16:00 +7°C° 0 mm 2 mps 658 mmHg 42%
    17:00 +7°C° 0 mm 2 mps 658 mmHg 43%
    18:00 +6°C° 0 mm 2 mps 658 mmHg 45%
    19:00 +5°C° 0 mm 2 mps 658 mmHg 46%
    20:00 +4°C° 0 mm 2 mps 658 mmHg 47%
    21:00 +4°C° 0 mm 2 mps 658 mmHg 47%
    22:00 +4°C° 0 mm 2 mps 658 mmHg 47%
    23:00 +4°C° 0 mm 2 mps 658 mmHg 47%

    20 October, Saturday

    Time Temperature Precipitation Wind Pressure Humidity
    00:00 +3°C° 0 mm 2 mps 658 mmHg 47%
    01:00 +3°C° 0 mm 2 mps 658 mmHg 47%
    02:00 +3°C° 0 mm 2 mps 658 mmHg 47%
    03:00 +3°C° 0 mm 2 mps 658 mmHg 47%
    04:00 +4°C° 0 mm 1 mps 658 mmHg 47%
    05:00 +4°C° 0 mm 1 mps 658 mmHg 47%
    06:00 +4°C° 0 mm 1 mps 658 mmHg 47%
    07:00 +5°C° 0 mm 1 mps 658 mmHg 46%
    08:00 +6°C° 0 mm 1 mps 659 mmHg 46%
    09:00 +7°C° 0 mm 1 mps 659 mmHg 45%
    10:00 +8°C° 0 mm 1 mps 659 mmHg 44%
    11:00 +9°C° 0 mm 1 mps 659 mmHg 43%
    12:00 +10°C° 0 mm 1 mps 659 mmHg 42%
    13:00 +10°C° 0 mm 1 mps 659 mmHg 42%
    14:00 +11°C° 0 mm 1 mps 659 mmHg 42%
    15:00 +10°C° 0 mm 1 mps 659 mmHg 42%
    16:00 +10°C° 0 mm 1 mps 659 mmHg 43%
    17:00 +9°C° 0 mm 1 mps 659 mmHg 44%
    18:00 +8°C° 0 mm 1 mps 659 mmHg 46%
    19:00 +7°C° 0 mm 2 mps 659 mmHg 47%
    20:00 +6°C° 0 mm 2 mps 659 mmHg 48%
    21:00 +6°C° 0 mm 2 mps 659 mmHg 48%
    22:00 +5°C° 0 mm 2 mps 659 mmHg 48%
    23:00 +5°C° 0 mm 2 mps 659 mmHg 48%

    21 October, Sunday

    Time Temperature Precipitation Wind Pressure Humidity
    00:00 +5°C° 0 mm 2 mps 659 mmHg 48%
    01:00 +5°C° 0 mm 2 mps 659 mmHg 47%
    02:00 +4°C° 0 mm 2 mps 658 mmHg 47%
    03:00 +4°C° 0 mm 2 mps 658 mmHg 47%
    04:00 +5°C° 0 mm 1 mps 658 mmHg 46%
    05:00 +5°C° 0 mm 1 mps 658 mmHg 46%
    06:00 +6°C° 0 mm 1 mps 658 mmHg 45%
    07:00 +6°C° 0 mm 1 mps 659 mmHg 44%
    08:00 +7°C° 0 mm 1 mps 659 mmHg 42%
    09:00 +9°C° 0 mm 1 mps 659 mmHg 41%
    10:00 +9°C° 0 mm 2 mps 659 mmHg 39%
    11:00 +12°C° 0 mm 2 mps 659 mmHg 38%
    12:00 +12°C° 0 mm 2 mps 659 mmHg 38%
    13:00 +13°C° 0 mm 2 mps 659 mmHg 38%
    14:00 +14°C° 0 mm 2 mps 659 mmHg 38%
    15:00 +13°C° 0 mm 1 mps 658 mmHg 38%
    16:00 +12°C° 0 mm 1 mps 658 mmHg 37%
    17:00 +12°C° 0 mm 1 mps 658 mmHg 37%
    18:00 +11°C° 0 mm 1 mps 658 mmHg 38%
    19:00 +10°C° 0 mm 1 mps 658 mmHg 39%
    20:00 +8°C° 0 mm 2 mps 658 mmHg 40%
    21:00 +8°C° 0 mm 2 mps 658 mmHg 40%
    22:00 +8°C° 0 mm 2 mps 658 mmHg 40%
    23:00 +7°C° 0 mm 2 mps 658 mmHg 40%
    Show more